N4DWK Weather Reports


Display with metric or nautical units.
time (UTC)temp
F
wind
direction
speed
MPH
gust
MPH
rain 1hr
in
rain 24hr
in
rain mn
in
humidity
%
barometer
mb
20260901141003 83 299 2.0 3.0 0.00 0.00 0.00 82 1017.6
20260901140503 83 344 1.0 3.0 0.00 0.00 0.00 82 1017.7
20260901140003 82 335 0.0 3.0 0.00 0.00 0.00 83 1017.7
20260901135503 82 18 1.0 3.0 0.00 0.00 0.00 84 1017.6
20260901135004 81 18 2.0 3.0 0.00 0.00 0.00 85 1017.6
20260901134504 81 235 0.0 0.0 0.00 0.00 0.00 85 1017.6
20260901134003 81 235 0.0 0.0 0.00 0.00 0.00 86 1017.7
20260901133504 81 235 0.0 3.0 0.00 0.00 0.00 87 1017.7
20260901133004 80 355 0.0 3.0 0.00 0.00 0.00 87 1017.6
20260901132503 80 5 1.0 5.0 0.00 0.00 0.00 88 1017.6
20260901132004 79 282 2.0 5.0 0.00 0.00 0.00 88 1017.6
20260901131504 79 305 0.0 3.0 0.00 0.00 0.00 90 1017.7
20260901131003 79 300 1.0 3.0 0.00 0.00 0.00 90 1017.8
20260901130503 78 283 1.0 3.0 0.00 0.00 0.00 91 1017.9
20260901130004 78 210 1.0 2.0 0.00 0.00 0.00 92 1017.8
20260901125503 77 210 1.0 3.0 0.00 0.00 0.00 92 1017.8
20260901125003 77 210 1.0 3.0 0.00 0.00 0.00 93 1017.8
20260901124504 76 210 2.0 3.0 0.00 0.00 0.00 93 1017.8
20260901124004 76 157 0.0 0.0 0.00 0.00 0.00 94 1017.8
20260901123504 76 157 0.0 0.0 0.00 0.00 0.00 94 1017.9
20260901123003 76 157 0.0 0.0 0.00 0.00 0.00 94 1017.8
20260901122503 76 157 0.0 0.0 0.00 0.00 0.00 94 1017.8
20260901122003 75 157 0.0 0.0 0.00 0.00 0.00 94 1017.8
20260901121503 75 157 0.0 0.0 0.00 0.00 0.00 94 1017.8
20260901121003 75 157 0.0 0.0 0.00 0.00 0.00 94 1017.8
20260901120503 75 157 0.0 0.0 0.00 0.00 0.00 94 1017.8
20260901120003 75 157 0.0 0.0 0.00 0.00 0.00 94 1017.8
20260901115503 75 157 0.0 0.0 0.00 0.00 0.00 95 1017.8
20260901115003 74 157 0.0 0.0 0.00 0.00 0.00 95 1017.8
20260901114503 74 157 0.0 0.0 0.00 0.00 0.00 94 1017.8
20260901114003 74 157 0.0 0.0 0.00 0.00 0.00 94 1017.7
20260901113503 74 157 0.0 0.0 0.00 0.00 0.00 94 1017.6
20260901113003 74 157 0.0 0.0 0.00 0.00 0.00 94 1017.5
20260901112503 74 157 0.0 0.0 0.00 0.00 0.00 94 1017.4
20260901112003 74 157 0.0 0.0 0.00 0.00 0.00 94 1017.3
20260901111503 74 157 0.0 0.0 0.00 0.00 0.00 94 1017.4
20260901111004 74 157 0.0 0.0 0.00 0.00 0.00 94 1017.4
20260901110503 74 157 0.0 0.0 0.00 0.00 0.00 94 1017.3
20260901110003 74 157 0.0 0.0 0.00 0.00 0.00 94 1017.2
20260901105503 74 157 0.0 0.0 0.00 0.00 0.00 94 1017.2
20260901105003 74 157 0.0 0.0 0.00 0.00 0.00 94 1017.2
20260901104504 74 157 0.0 0.0 0.00 0.00 0.00 94 1017.2
20260901104003 74 157 0.0 0.0 0.00 0.00 0.00 94 1017.2
20260901103504 74 157 0.0 0.0 0.00 0.00 0.00 94 1017.1
20260901103004 74 157 0.0 0.0 0.00 0.00 0.00 94 1017.1
20260901102503 74 157 0.0 0.0 0.00 0.00 0.00 94 1017.1
20260901102003 74 157 0.0 0.0 0.00 0.00 0.00 94 1017.1
20260901101503 74 157 0.0 0.0 0.00 0.00 0.00 94 1017.1
20260901101003 74 157 0.0 0.0 0.00 0.00 0.00 94 1017.2
20260901100503 74 157 0.0 0.0 0.00 0.00 0.00 94 1017.2
20260901100003 74 157 0.0 0.0 0.00 0.00 0.00 94 1017.3
20260901095504 74 157 0.0 0.0 0.00 0.00 0.00 94 1017.2
20260901095003 74 157 0.0 0.0 0.00 0.00 0.00 94 1017.2
20260901094502 74 157 0.0 0.0 0.00 0.00 0.00 94 1017.1
20260901094003 74 157 0.0 0.0 0.00 0.00 0.00 94 1017.1
20260901093503 74 157 0.0 0.0 0.00 0.00 0.00 94 1017.1
20260901093003 74 157 0.0 0.0 0.00 0.00 0.00 94 1017.2
20260901092503 74 157 0.0 0.0 0.00 0.00 0.00 93 1017.2
20260901092004 74 157 0.0 0.0 0.00 0.00 0.00 93 1017.2
20260901091503 74 157 0.0 0.0 0.00 0.00 0.00 93 1017.2
20260901091003 74 157 0.0 0.0 0.00 0.00 0.00 93 1017.2
20260901090503 74 157 0.0 0.0 0.00 0.00 0.00 93 1017.1
20260901090002 74 157 0.0 0.0 0.00 0.00 0.00 93 1017.2
20260901085502 74 157 0.0 0.0 0.00 0.00 0.00 93 1017.1
20260901085003 74 157 0.0 0.0 0.00 0.00 0.00 93 1017.1
20260901084503 74 157 0.0 0.0 0.00 0.00 0.00 93 1017.1
20260901084003 74 157 0.0 0.0 0.00 0.00 0.00 93 1017.0
20260901083503 74 157 0.0 0.0 0.00 0.00 0.00 93 1017.0
20260901083003 74 157 0.0 0.0 0.00 0.00 0.00 93 1017.2
20260901082502 74 157 0.0 0.0 0.00 0.00 0.00 93 1017.2
20260901082004 74 157 0.0 0.0 0.00 0.00 0.00 93 1017.2
20260901081503 74 157 0.0 0.0 0.00 0.00 0.00 92 1017.2
20260901081004 74 157 0.0 0.0 0.00 0.00 0.00 92 1017.2
20260901080503 75 157 0.0 0.0 0.00 0.00 0.00 92 1017.2
20260901080002 75 157 0.0 0.0 0.00 0.00 0.00 92 1017.2
20260901075502 75 157 0.0 0.0 0.00 0.00 0.00 92 1017.2
20260901075003 75 157 0.0 0.0 0.00 0.00 0.00 92 1017.2
20260901074503 75 157 0.0 0.0 0.00 0.00 0.00 92 1017.2
20260901074003 75 157 0.0 0.0 0.00 0.00 0.00 92 1017.2
20260901073503 75 157 0.0 0.0 0.00 0.00 0.00 92 1017.1
20260901073002 75 157 0.0 0.0 0.00 0.00 0.00 92 1017.2
20260901072502 75 157 0.0 0.0 0.00 0.00 0.00 92 1017.3
20260901072003 75 157 0.0 0.0 0.00 0.00 0.00 92 1017.4
20260901071503 75 157 0.0 0.0 0.00 0.00 0.00 92 1017.4
20260901071003 75 157 0.0 0.0 0.00 0.00 0.00 92 1017.4
20260901070503 75 157 0.0 0.0 0.00 0.00 0.00 92 1017.5
20260901070003 75 157 0.0 0.0 0.00 0.00 0.00 91 1017.5
20260901065503 76 157 0.0 0.0 0.00 0.00 0.00 91 1017.5
20260901065003 76 157 0.0 0.0 0.00 0.00 0.00 91 1017.6
20260901064503 76 157 0.0 0.0 0.00 0.00 0.00 91 1017.5
20260901064003 76 157 0.0 0.0 0.00 0.00 0.00 91 1017.6
20260901063502 76 157 0.0 0.0 0.00 0.00 0.00 91 1017.7
20260901063004 76 157 0.0 0.0 0.00 0.00 0.00 91 1017.7
20260901062503 76 157 0.0 0.0 0.00 0.00 0.00 91 1017.8
20260901062003 76 157 0.0 0.0 0.00 0.00 0.00 90 1017.8
20260901061503 76 157 0.0 0.0 0.00 0.00 0.00 90 1017.7
20260901061002 76 157 0.0 0.0 0.00 0.00 0.00 90 1017.8
20260901060503 77 157 0.0 0.0 0.00 0.00 0.00 90 1017.8
20260901060003 77 157 0.0 0.0 0.00 0.00 0.00 90 1017.8
20260901055502 77 157 0.0 0.0 0.00 0.00 0.00 90 1017.9
20260901055003 77 157 0.0 0.0 0.00 0.00 0.00 89 1018.0
20260901054502 77 157 0.0 0.0 0.00 0.00 0.00 89 1018.0
20260901054003 77 157 0.0 0.0 0.00 0.00 0.00 89 1018.1
20260901053503 78 157 0.0 0.0 0.00 0.00 0.00 89 1018.1
20260901053003 78 157 0.0 0.0 0.00 0.00 0.00 88 1018.1
20260901052515 78 157 0.0 0.0 0.00 0.00 0.00 88 1018.2
20260901052003 78 157 0.0 0.0 0.00 0.00 0.00 88 1018.2
20260901051503 78 157 0.0 0.0 0.00 0.00 0.00 88 1018.2
20260901051002 78 157 0.0 0.0 0.00 0.00 0.00 88 1018.2
20260901050502 78 157 0.0 0.0 0.00 0.00 0.00 88 1018.2
20260901050003 78 157 0.0 0.0 0.00 0.00 0.00 88 1018.2
20260901045503 78 157 0.0 2.0 0.00 0.00 0.00 87 1018.3
20260901045004 78 157 0.0 2.0 0.00 0.00 0.00 87 1018.3
20260901044505 78 157 0.0 0.0 0.00 0.00 0.00 87 1018.3
20260901044003 78 157 0.0 0.0 0.00 0.00 0.00 87 1018.4
20260901043504 78 157 0.0 0.0 0.00 0.00 0.00 86 1018.3
20260901043002 79 157 0.0 0.0 0.00 0.00 0.00 86 1018.3
20260901042502 79 157 0.0 0.0 0.00 0.00 0.00 86 1018.3
20260901042002 79 157 0.0 0.0 0.00 0.00 0.00 85 1018.3
20260901041503 79 157 0.0 0.0 0.00 0.00 0.00 85 1018.3
20260901041004 79 157 0.0 0.0 0.00 0.00 0.00 85 1018.2
20260901040503 79 157 0.0 0.0 0.00 0.00 0.00 84 1018.2
20260901040003 79 157 0.0 1.0 0.00 0.00 0.00 84 1018.2
20260901035504 79 157 0.0 2.0 0.00 0.00 0.00 84 1018.2
20260901035003 79 157 1.0 2.0 0.00 0.00 0.00 84 1018.2
20260901034502 80 157 0.0 3.0 0.00 0.00 0.00 84 1018.2
20260901034002 80 157 0.0 3.0 0.00 0.00 0.00 83 1018.2
20260901033503 80 136 0.0 1.0 0.00 0.00 0.00 83 1018.2
20260901033003 80 137 0.0 0.0 0.00 0.00 0.00 82 1018.1
20260901031007 80 137 0.0 0.0 0.00 0.00 0.00 82 1018.1
20260901030507 81 137 0.0 0.0 0.00 0.00 0.00 82 1018.2
20260901030007 81 131 0.0 0.0 0.00 0.00 0.00 82 1018.2
20260901025508 81 131 0.0 1.0 0.00 0.00 0.00 81 1018.2
20260901025007 81 131 0.0 1.0 0.00 0.00 0.00 81 1018.1
20260901024506 81 131 0.0 3.0 0.00 0.00 0.00 81 1018.1
20260901024008 81 131 0.0 3.0 0.00 0.00 0.00 81 1018.0
20260901023506 82 128 0.0 0.0 0.00 0.00 0.00 81 1018.0
20260901023007 82 128 0.0 0.0 0.00 0.00 0.00 81 1018.1
20260901022507 82 128 0.0 0.0 0.00 0.00 0.00 81 1018.2
20260901022007 82 128 0.0 2.0 0.00 0.00 0.00 80 1018.2
20260901021506 82 128 0.0 3.0 0.00 0.00 0.00 80 1018.2
20260901021006 82 128 1.0 5.0 0.00 0.00 0.00 80 1018.3
20260901020506 82 128 2.0 5.0 0.00 0.00 0.00 80 1018.3
20260901020008 82 136 2.0 3.0 0.00 0.00 0.00 79 1018.3
20260901015507 83 132 1.0 3.0 0.00 0.00 0.00 79 1018.3
20260901015006 83 132 1.0 3.0 0.00 0.00 0.00 78 1018.3
20260901014507 83 132 2.0 3.0 0.00 0.00 0.00 78 1018.3
20260901014007 83 133 1.0 3.0 0.00 0.00 0.00 78 1018.3
20260901013507 83 126 0.0 3.0 0.00 0.00 0.00 77 1018.2
20260901013007 83 138 1.0 3.0 0.00 0.00 0.00 76 1018.1
20260901012507 84 137 2.0 3.0 0.00 0.00 0.00 76 1018.1
20260901012009 84 142 1.0 6.0 0.00 0.00 0.00 75 1018.0
20260901011507 84 137 3.0 6.0 0.00 0.00 0.00 75 1018.0
20260901011006 84 141 3.0 6.0 0.00 0.00 0.00 74 1018.0
20260901010506 84 143 2.0 6.0 0.00 0.00 0.00 74 1018.0
20260901010007 84 146 2.0 6.0 0.00 0.00 0.00 73 1018.0
20260901005507 84 117 2.0 5.0 0.00 0.00 0.00 73 1017.9
20260901005007 84 133 2.0 3.0 0.00 0.00 0.00 73 1018.0
20260901004506 84 139 2.0 3.0 0.00 0.00 0.00 73 1018.0
20260901004007 84 76 0.0 3.0 0.00 0.00 0.00 73 1018.0
20260901003506 84 141 1.0 3.0 0.00 0.00 0.00 73 1018.0
20260901003008 84 30 1.0 3.0 0.00 0.00 0.00 73 1018.0
20260901002506 85 30 0.0 3.0 0.00 0.00 0.00 73 1017.9
20260901002007 85 65 1.0 3.0 0.00 0.00 0.00 73 1017.9
20260901001507 85 25 0.0 3.0 0.00 0.00 0.00 73 1017.9
20260901001007 85 25 2.0 6.0 0.00 0.00 0.00 73 1017.8
20260901000507 85 45 2.0 6.0 0.00 0.00 0.00 73 1017.7
20260901000006 85 118 1.0 5.0 0.00 0.00 0.00 72 1017.6
20260831235506 85 30 2.0 5.0 0.00 0.00 0.00 72 1017.6
20260831235008 85 36 1.0 3.0 0.00 0.00 0.00 73 1017.5
20260831234506 85 27 1.0 3.0 0.00 0.00 0.00 72 1017.6
20260831234007 85 27 0.0 3.0 0.00 0.00 0.00 72 1017.6
20260831233507 85 30 0.0 3.0 0.00 0.00 0.00 72 1017.6
20260831233007 85 30 0.0 3.0 0.00 0.00 0.00 71 1017.6
20260831232507 86 30 1.0 3.0 0.00 0.00 0.00 71 1017.6
20260831232007 86 30 0.0 2.0 0.00 0.00 0.00 71 1017.6
20260831231507 86 30 0.0 2.0 0.00 0.00 0.00 70 1017.6
20260831231006 87 30 0.0 3.0 0.00 0.00 0.00 69 1017.5
20260831230506 87 28 2.0 5.0 0.00 0.00 0.00 68 1017.5
20260831230006 87 15 2.0 5.0 0.00 0.00 0.00 68 1017.5
20260831225506 87 34 0.0 0.0 0.00 0.00 0.00 68 1017.4
20260831225006 88 37 0.0 0.0 0.00 0.00 0.00 67 1017.5
20260831224508 88 37 0.0 3.0 0.00 0.00 0.00 67 1017.5
20260831224006 88 37 0.0 3.0 0.00 0.00 0.00 65 1017.4
20260831223507 88 37 0.0 3.0 0.00 0.00 0.00 64 1017.4
20260831223007 89 39 1.0 5.0 0.00 0.00 0.00 63 1017.5
20260831222507 89 22 1.0 5.0 0.00 0.00 0.00 63 1017.5
20260831222006 89 11 1.0 6.0 0.00 0.00 0.00 61 1017.5
20260831221507 90 25 2.0 6.0 0.00 0.00 0.00 60 1017.6
20260831221007 90 1 2.0 6.0 0.00 0.00 0.00 60 1017.6
20260831220507 91 20 2.0 6.0 0.00 0.00 0.00 58 1017.5
20260831220007 91 6 1.0 6.0 0.00 0.00 0.00 59 1017.5
20260831215506 91 17 3.0 3.0 0.00 0.00 0.00 59 1017.5
20260831215007 92 17 2.0 6.0 0.00 0.00 0.00 59 1017.4
20260831214506 92 20 2.0 6.0 0.00 0.00 0.00 59 1017.4
20260831214007 92 136 0.0 3.0 0.00 0.00 0.00 59 1017.4
20260831213506 92 19 0.0 6.0 0.00 0.00 0.00 62 1017.4
20260831213007 91 19 2.0 6.0 0.00 0.00 0.00 61 1017.3
20260831212506 91 355 1.0 6.0 0.00 0.00 0.00 61 1017.4
20260831212007 91 40 1.0 5.0 0.00 0.00 0.00 61 1017.4
20260831211506 92 37 1.0 5.0 0.00 0.00 0.00 59 1017.4
20260831211007 92 30 1.0 5.0 0.00 0.00 0.00 61 1017.3
20260831210507 90 37 1.0 6.0 0.00 0.00 0.00 60 1017.3
20260831210006 90 35 2.0 6.0 0.00 0.00 0.00 59 1017.3
20260831205507 91 111 1.0 6.0 0.00 0.00 0.00 61 1017.3
20260831205006 91 7 2.0 6.0 0.00 0.00 0.00 60 1017.3
20260831204507 91 16 1.0 6.0 0.00 0.00 0.00 59 1017.3
20260831204007 92 87 3.0 8.0 0.00 0.00 0.00 57 1017.4
20260831203506 94 119 2.0 8.0 0.00 0.00 0.00 55 1017.4
20260831203007 94 41 3.0 7.0 0.00 0.00 0.00 55 1017.4
20260831202506 94 359 3.0 7.0 0.00 0.00 0.00 56 1017.4
20260831202007 94 13 1.0 3.0 0.00 0.00 0.00 56 1017.4
20260831201506 94 15 1.0 5.0 0.00 0.00 0.00 56 1017.4
20260831201006 95 24 3.0 7.0 0.00 0.00 0.00 56 1017.5
20260831200506 94 19 1.0 7.0 0.00 0.00 0.00 58 1017.5
20260831200006 94 13 1.0 6.0 0.00 0.00 0.00 58 1017.5
20260831195507 94 79 1.0 6.0 0.00 0.00 0.00 58 1017.5
20260831195006 93 15 3.0 8.0 0.00 0.00 0.00 59 1017.5
20260831194507 92 1 2.0 8.0 0.00 0.00 0.00 59 1017.5
20260831194007 93 353 3.0 8.0 0.00 0.00 0.00 57 1017.6
20260831193506 95 49 1.0 5.0 0.00 0.00 0.00 55 1017.6
20260831193007 94 20 3.0 6.0 0.00 0.00 0.00 56 1017.6
20260831192507 95 324 2.0 6.0 0.00 0.00 0.00 58 1017.7
20260831192007 94 224 2.0 6.0 0.00 0.00 0.00 54 1017.7
20260831191506 94 5 3.0 6.0 0.00 0.00 0.00 57 1017.8
20260831191006 95 240 3.0 5.0 0.00 0.00 0.00 53 1017.8
20260831190506 95 355 1.0 3.0 0.00 0.00 0.00 56 1017.9
20260831190006 95 56 1.0 3.0 0.00 0.00 0.00 56 1018.0
20260831185507 95 89 2.0 5.0 0.00 0.00 0.00 57 1018.0
20260831185006 96 42 3.0 5.0 0.00 0.00 0.00 55 1018.1
20260831184506 96 23 3.0 5.0 0.00 0.00 0.00 59 1018.0
20260831184006 95 0 1.0 3.0 0.00 0.00 0.00 58 1018.1
20260831183507 94 311 2.0 6.0 0.00 0.00 0.00 58 1018.2
20260831183006 94 5 2.0 6.0 0.00 0.00 0.00 58 1018.2
20260831182506 94 58 3.0 6.0 0.00 0.00 0.00 58 1018.2
20260831182007 94 100 2.0 6.0 0.00 0.00 0.00 58 1018.2
20260831181506 94 34 2.0 6.0 0.00 0.00 0.00 60 1018.3
20260831181007 93 0 2.0 6.0 0.00 0.00 0.00 59 1018.3
20260831180506 93 351 2.0 3.0 0.00 0.00 0.00 61 1018.4
20260831180007 92 140 0.0 3.0 0.00 0.00 0.00 62 1018.4
20260831175506 91 139 1.0 5.0 0.00 0.00 0.00 63 1018.4
20260831175006 92 5 1.0 5.0 0.00 0.00 0.00 60 1018.4
20260831174507 91 131 1.0 5.0 0.00 0.00 0.00 64 1018.4
20260831174006 91 123 0.0 6.0 0.00 0.00 0.00 60 1018.5
20260831173506 91 103 1.0 6.0 0.00 0.00 0.00 63 1018.5
20260831173007 90 38 2.0 6.0 0.00 0.00 0.00 65 1018.6
20260831172506 90 320 2.0 5.0 0.00 0.00 0.00 65 1018.6
20260831172007 90 356 1.0 5.0 0.00 0.00 0.00 65 1018.7
20260831171506 90 315 1.0 5.0 0.00 0.00 0.00 64 1018.7
20260831171006 89 13 1.0 5.0 0.00 0.00 0.00 64 1018.7
20260831170506 90 8 1.0 5.0 0.00 0.00 0.00 63 1018.6
20260831170006 89 237 2.0 5.0 0.00 0.00 0.00 63 1018.7
20260831165507 89 132 2.0 5.0 0.00 0.00 0.00 65 1018.7
20260831165006 89 33 2.0 3.0 0.00 0.00 0.00 64 1018.7
20260831164506 89 10 1.0 3.0 0.00 0.00 0.00 65 1018.8
20260831164006 88 23 2.0 5.0 0.00 0.00 0.00 67 1019.0
20260831163505 88 25 0.0 6.0 0.00 0.00 0.00 68 1019.0
20260831163007 87 355 2.0 6.0 0.00 0.00 0.00 70 1019.0
20260831162506 87 331 1.0 3.0 0.00 0.00 0.00 70 1019.1
20260831162007 87 45 0.0 2.0 0.00 0.00 0.00 71 1019.2
20260831161506 86 45 0.0 3.0 0.00 0.00 0.00 72 1019.2
20260831161007 86 44 2.0 3.0 0.00 0.00 0.00 72 1019.1
20260831160506 86 75 1.0 3.0 0.00 0.00 0.00 72 1019.1
20260831160006 86 132 2.0 3.0 0.00 0.00 0.00 73 1019.2
20260831155506 86 36 0.0 3.0 0.00 0.00 0.00 73 1019.2
20260831155006 85 9 0.0 0.0 0.00 0.00 0.00 73 1019.2
20260831154506 85 324 0.0 0.0 0.00 0.00 0.00 75 1019.2
20260831154006 85 191 0.0 0.0 0.00 0.00 0.00 74 1019.3
20260831153505 84 191 0.0 1.0 0.00 0.00 0.00 76 1019.3
20260831153006 84 269 0.0 3.0 0.00 0.00 0.00 77 1019.2
20260831152506 84 42 2.0 3.0 0.00 0.00 0.00 77 1019.3
20260831152007 84 44 0.0 3.0 0.00 0.00 0.00 76 1019.3
20260831151506 84 80 0.0 3.0 0.00 0.00 0.00 76 1019.3
20260831151005 83 14 2.0 3.0 0.00 0.00 0.00 78 1019.3
20260831150505 83 39 0.0 1.0 0.00 0.00 0.00 77 1019.3
20260831150006 83 197 0.0 3.0 0.00 0.00 0.00 78 1019.2
20260831145507 83 196 1.0 3.0 0.00 0.00 0.00 78 1019.3
20260831145005 83 40 0.0 3.0 0.00 0.00 0.00 78 1019.3
20260831144506 82 40 2.0 3.0 0.00 0.00 0.00 78 1019.2
20260831144006 82 41 2.0 3.0 0.00 0.00 0.00 79 1019.3
20260831143506 82 4 0.0 3.0 0.00 0.00 0.00 78 1019.3
20260831143006 82 10 2.0 3.0 0.00 0.00 0.00 79 1019.3
20260831142507 82 355 2.0 3.0 0.00 0.00 0.00 79 1019.3
20260831142006 82 5 2.0 5.0 0.00 0.00 0.00 80 1019.3
20260831141506 82 31 3.0 5.0 0.00 0.00 0.00 80 1019.3